Lid_Strength_Index
19 20 22 21 20 21 22 23 24 21 17 19 20 19 18 16 16 16 16 15 13 13 12 10 8 4 2 2 2 2 2 2 2 3 3 2 2 2 1 1 1 1 1 1
21 22 19 18 18 19 21 22 23 20 17 18 19 20 17 16 16 15 15 15 13 10 9 9 9 8 3 2 2 2 2 2 2 2 2 2 2 1 1 1 1 1 1 1
23 21 17 18 19 19 21 21 21 20 18 18 21 22 21 17 14 14 12 11 11 10 9 9 9 9 7 3 2 2 2 1 1 2 2 2 2 2 2 1 1 1 1 1
22 19 18 19 19 18 21 19 18 19 20 25 19 27 22 18 15 14 12 11 11 11 9 8 10 10 7 5 4 2 1 1 1 1 2 2 3 3 2 2 1 1 1 1
21 20 20 19 18 17 19 18 19 18 21 22 23 25 22 17 16 14 12 11 10 11 9 9 10 10 9 7 6 5 4 3 1 1 1 2 2 2 2 2 2 2 2 2
20 18 18 19 17 17 17 19 20 21 21 29 23 23 22 19 15 14 12 11 9 10 10 10 9 11 11 9 8 7 6 5 2 1 1 2 2 2 2 2 3 3 2 2
22 20 20 18 20 19 19 23 29 30 30 27 21 22 19 15 14 13 12 10 10 10 10 10 11 11 12 11 10 9 8 8 5 3 1 2 2 2 2 2 3 3 3 3
27 25 20 18 20 21 20 22 27 32 27 25 19 21 18 14 12 12 11 11 11 10 10 10 10 10 10 10 11 10 9 8 7 6 5 2 1 2 2 2 2 2 3 2
29 25 20 18 19 19 21 26 20 26 24 25 22 19 16 14 15 14 13 12 12 12 10 10 9 10 10 10 11 11 11 9 8 7 6 5 3 2 2 2 2 2 2 3
24 28 20 19 19 19 19 17 24 26 34 32 24 21 20 16 16 15 15 14 13 11 10 9 10 10 10 10 10 10 10 10 9 8 7 7 5 3 1 2 3 2 2 3
27 25 23 21 24 22 21 23 23 25 24 26 27 22 17 17 16 16 15 15 13 11 11 10 9 9 10 10 10 10 9 10 11 10 9 8 7 5 2 2 2 2 3 3
21 26 26 25 21 19 19 21 21 27 27 23 22 23 15 15 15 16 14 13 13 12 11 11 10 10 10 11 10 11 9 9 11 11 10 9 8 6 4 3 2 4 5 6
21 27 30 25 24 22 25 20 19 20 20 25 25 24 15 16 15 13 14 13 12 12 12 11 11 11 10 10 11 10 9 9 9 11 11 10 9 7 6 5 3 6 7 7
16 24 26 26 24 27 28 26 20 23 23 23 22 21 17 15 15 13 13 12 12 12 12 12 12 12 11 10 10 11 9 9 9 10 11 11 11 10 7 7 7 7 7 7
20 27 25 22 21 22 22 22 21 22 20 22 20 20 17 15 14 13 12 13 13 12 12 12 13 12 12 11 10 9 9 9 10 10 10 12 12 12 10 10 10 12 12 11
20 27 28 28 21 21 23 22 22 21 20 20 19 20 15 14 13 13 13 13 13 12 11 10 10 11 12 10 10 8 9 9 10 10 10 11 12 13 13 13 13 13 14 15
22 26 30 30 23 24 26 24 23 22 20 21 22 18 15 15 14 13 13 13 13 12 11 9 9 9 9 10 10 9 9 10 10 11 11 12 12 13 14 14 14 14 15 15
22 26 28 29 29 31 20 21 23 20 19 19 17 16 15 15 14 13 12 13 13 12 12 10 8 7 7 9 10 10 9 9 10 11 12 12 12 13 13 14 14 14 14 15
19 22 30 33 38 25 21 21 22 22 20 18 17 16 16 15 15 15 13 12 12 12 11 10 10 10 10 11 11 11 9 9 10 11 11 12 12 13 13 14 14 14 14 15
19 19 23 35 35 31 21 19 19 19 24 18 17 16 16 16 19 15 13 12 13 11 10 13 13 13 12 11 10 9 9 9 10 11 11 11 12 13 13 14 14 14 14 15
24 22 24 31 32 27 20 18 18 25 20 18 17 15 16 18 16 14 13 13 12 11 12 13 14 13 12 11 9 10 9 10 10 11 11 12 12 13 13 13 14 14 15 15
25 27 27 27 31 29 19 19 21 17 17 17 18 17 16 15 15 14 14 14 11 13 14 13 13 12 11 10 10 11 11 11 11 12 12 13 13 13 14 15 14 15 15 16
25 22 25 23 23 18 18 17 16 17 17 18 17 15 15 16 16 15 15 15 11 12 14 13 13 13 12 11 12 13 13 12 12 13 13 14 14 13 14 14 15 15 15 16
22 20 22 22 18 18 17 16 16 16 16 16 16 15 15 16 15 15 14 14 12 12 13 13 13 14 15 14 13 13 13 13 13 14 14 14 15 15 15 14 14 15 16 16
20 20 22 22 18 17 16 15 14 15 16 16 16 16 15 15 15 15 15 14 13 13 13 15 14 15 16 15 14 14 13 13 14 14 15 15 15 15 15 15 15 16 16 15
19 19 19 18 15 16 14 16 15 16 16 16 16 16 15 15 15 15 15 14 15 13 14 15 14 14 14 15 15 15 15 15 15 16 16 17 17 17 17 17 17 14 14 13